Location: Bletchingley
(51.2333°N, 0.1000°W)
Time: 15:12:19
(UTC+00:00)

Cosmos 494 Rocket - Pass Details

Date: 18 September 2020
Orbit: 741 x 771 km, 74.1° (Epoch: 27 October)

Event Time Altitude Azimuth Distance (km) Brightness Sun altitude
Rises 19:55:27 0° 336° (NNW) 3,243 8.1 -17.2°
Reaches altitude 10° 19:57:51 10° 338° (NNW) 2,317 7.2 -17.6°
Maximum altitude 20:03:07 74° 63° (ENE) 805 3.9 -18.3°
Enters shadow 20:05:37 32° 143° (SE) 1,312 4.7 -18.7°
